Location: Aucun
(42.9667°N, 0.1667°W)
Time: 16:30:48
(UTC+00:00)

STARLINK-1063 - Pass Details

Date: 17 February 2020
Orbit: 548 x 551 km, 53.0° (Epoch: 30 March)

Event Time Altitude Azimuth Distance (km) Brightness Sun altitude
Exits shadow 03:42:15 11° 96° (E) 1,732 6.8 -35.8°
Drops below altitude 10° 03:42:29 10° 98° (E) 1,817 6.9 -35.8°
Enters shadow 04:45:47 -57° 308° (NW) 11,371 10.3 -24.5°
Maximum altitude 05:18:07 40° 224° (SW) 820 4.1 -18.6°
